Flag for Brazil Weather past 2 weeks in Campinas, São Paulo, Brazil

Now
68 °F

Clear.


Feels Like: 68 °F
Forecast: 68 / 85 °F
Wind: No wind

Location: Campinas Aeroporto

Current Time: Mar 5, 2015 at 7:27:42 AM

Latest Report: Mar 5, 2015 at 6:00 AM


Visibility: 6 mi

Pressure: 30.04 "Hg

Humidity: 94%

Dew point: 66 °F

Location of CampinasLocation

Historic Weather in Campinas — Graph

°F

Campinas temperature yesterday

Maximum temperature yesterday: 90 °F (at 4:00 PM)
Minimum temperature yesterday: 66 °F (at 5:00 AM)
Average temperature yesterday: 77 °F

Past Weeks' High & Low Weather Summary

 TemperatureHumidityPressure
High90 °F (Feb 21, 3:00 PM)100% (Feb 18, 4:00 PM)30.18 "Hg (Feb 18, 4:00 PM)
Low37 °F (Feb 19, 5:00 PM)8% (Feb 28, 5:00 AM)29.86 "Hg (Feb 27, 4:00 PM)
Average75 °F71%30.04 "Hg
* Reported Feb 18 7:00 AM — Mar 5 6:00 AM, Campinas, Weather by CustomWeather, © 2015

Note: Actual official high and low records may vary slightly from our data, if they occured in-between our weather recording intervals... More about our weather records

Advertising

Campinas weather history for previous 24 hours

 ConditionsComfort  
Time TempWeatherWind HumidityBarometerVisibility
6:00 AM
Thu, Mar 5
68 °FClear.No wind94%30.04 "Hg6 mi
5:00 AM68 °FClear.7 mph94%30.01 "Hg10 mi
4:00 AM70 °FClear.5 mph88%30.04 "Hg10 mi
3:00 AM70 °FPassing clouds.6 mph88%30.01 "HgN/A
2:00 AM70 °FPassing clouds.6 mph88%30.01 "HgN/A
1:00 AM72 °FPassing clouds.7 mph83%30.04 "HgN/A
12:00 AM72 °FPassing clouds.6 mph83%30.07 "HgN/A
11:00 PM
Wed, Mar 4
73 °FClear.12 mph78%30.07 "Hg10 mi
10:00 PM75 °FPassing clouds.12 mph74%30.07 "HgN/A
9:00 PM75 °FClear.13 mph74%30.04 "Hg10 mi
8:00 PM77 °FClear.13 mph74%29.98 "Hg10 mi
7:00 PM81 °FClear.17 mph62%29.95 "Hg10 mi
6:00 PM88 °FClear.7 mph38%29.95 "Hg10 mi
4:00 PM90 °FPassing clouds.5 mph38%29.95 "HgN/A
3:00 PM88 °FScattered clouds.6 mph43%29.98 "HgN/A
2:00 PM88 °FScattered clouds.6 mph40%30.04 "HgN/A
1:00 PM88 °FScattered clouds.7 mph43%30.07 "HgN/A
12:00 PM84 °FScattered clouds.5 mph48%30.09 "HgN/A
11:00 AM82 °FPassing clouds.7 mph48%30.09 "HgN/A
10:00 AM81 °FSunny.9 mph54%30.09 "Hg10 mi
9:00 AM77 °FSunny.2 mph65%30.09 "Hg10 mi
8:00 AM72 °FSunny.6 mph78%30.07 "Hg10 mi
7:00 AM68 °FPassing clouds.8 mph83%30.07 "HgN/A
Weather by CustomWeather, © 2015

See weather overviewHow to use our weather pages